Regional Weather Roundup
Issued by NWS Grand Forks, ND

Home | Current Version | Previous Version | Text Only | Print | Product List | Glossary Off
Versions: 1 2 3 4 5 6 7 8 9 10 11 12 13 14 15 16 17 18 19 20 21 22 23 24 25 26 27 28 29 30 31 32 33 34 35 36 37 38 39 40 41 42 43 44 45 46 47 48 49 50

000
ASUS43 KFGF 040110
RWRFGF
PRAIRIE TO PINES  WEATHER ROUNDUP
NATIONAL WEATHER SERVICE EASTERN NORTH DAKOTA/GRAND FORKS ND
800 PM CDT FRI JUL 03 2015

 **SATELLITE DATA USED TO AUGMENT SKY COVER AT AUTOMATED STATIONS**
 *****  WEATHER ACROSS EASTERN NORTH DAKOTA  *****

CITY           SKY/WX    TMP DP  RH WIND       PRES   REMARKS
GRAND FORKS    MOSUNNY   77  61  57 E3        29.89S HAZE
GRAND FRKS AFB MOSUNNY   75  63  66 E5        29.90F
GRAND FRKS NWS   N/A     75 N/A N/A NE2         N/A
DEVILS LAKE    MOSUNNY   79  57  47 E8        29.89F
FARGO          SUNNY     77  65  66 NE5       29.89S HAZE
WAHPETON ARPT  PTCLDY    77  61  57 NE3       29.90F
$$

 ***** WEATHER ACROSS CENTRAL AND WESTERN NORTH DAKOTA  *****

CITY           SKY/WX    TMP DP  RH WIND       PRES   REMARKS
BISMARCK       PTSUNNY   78  64  61 SE7       29.91F HAZE
MINOT          CLOUDY    78  64  61 SE8       29.86F HAZE
JAMESTOWN      CLOUDY    78  63  59 S5        29.91S HAZE
MINOT AFB      SUNNY     80  74  82 SE8       29.85F
GARRISON         N/A     77  67  71 SE7       29.89F
WILLISTON      MOSUNNY   85  58  39 S7        29.85F
DICKINSON      SUNNY     77  64  64 SE10      29.90F
HETTINGER      SUNNY     78  62  57 SE10      29.93F HAZE
$$

 *****  OTHER AIRPORT OBSERVATIONS IN OUR AREA  *****

CITY           SKY/WX    TMP DP  RH WIND       PRES   REMARKS
WALHALLA       FAIR      75  64  69 MISG      29.90S HAZE
GRAFTON AIRPOR FAIR      77  63  61 CALM      29.90F HAZE
VALLEY CITY AR FAIR      77  66  69 E3        29.91F HAZE
CANDO          FAIR      75  64  69 SE6       29.90F
CAVALIER APRT  FAIR      75  64  69 CALM      29.89F HAZE
GWINNER        FAIR      79  64  61 E5        29.91S
ROLLA          FAIR      73  63  68 SE10      29.91F
 ***** THE ABOVE OBSERVATIONS ARE NON NWS ARE NOT QUALITY
       CONTROLLED AND MAY MIS-REPORT RAIN FOR SNOW...
$$

  *****  WEATHER ACROSS NORTHERN MINNESOTA  *****

CITY           SKY/WX    TMP DP  RH WIND       PRES   REMARKS
FLAG ISLAND    SUNNY     75  57  53 CALM      29.89S
WARROAD        SUNNY     75  63  64 E5        29.91S
ROSEAU         MOSUNNY   77  64  65 CALM      29.90S
HALLOCK        SUNNY     75  64  69 CALM      29.89S HAZE
THF RVR FALLS  MOSUNNY   73  64  73 W3        29.91S
BAUDETTE       SUNNY     74  59  59 NW3       29.90S
WASKISH        SUNNY     75  55  50 CALM      29.91S
CROOKSTON      MOSUNNY   75  61  60 CALM      29.91S HAZE
$$
  *****  WEATHER ACROSS CENTRAL AND WEST MINNESOTA  *****

CITY           SKY/WX    TMP DP  RH WIND       PRES   REMARKS
FOSSTON        MOSUNNY   72  61  68 CALM      29.92S HAZE
BEMIDJI        SUNNY     74  60  62 CALM      29.92R
PARK RAPIDS    CLOUDY    77  59  53 N6        29.92S HAZE
ELBOW LAKE     FAIR      77  64  63 CALM      29.91R HAZE
WADENA         SUNNY     73  63  68 N3        29.92S HAZE
DETROIT LAKES  SUNNY     75  61  60 CALM      29.94R HAZE
MOORHEAD       SUNNY     77  64  65 NE3       29.91R HAZE
FERGUS FALLS   MOSUNNY   79  63  57 CALM      29.90S HAZE
MORRIS MN      PTSUNNY   79  64  61 CALM      29.90S HAZE
STAPLES        SUNNY     75  61  60 NW3       29.91S HAZE
$$
  *****  WEATHER ELSEWHERE ACROSS MINNESOTA  *****

CITY           SKY/WX    TMP DP  RH WIND       PRES   REMARKS
DULUTH         PTCLDY    75  58  55 N6        29.88S SMOKE
INTRNTL FALLS  SUNNY     76  54  46 NE3       29.90R
ELY            CLEAR     73  48  40 CALM      29.89S
CLOQUET        CLEAR     75  57  53 NW3       29.89S HAZE
WHEATON        PTSUNNY   75  64  69 CALM      29.92S HAZE
BRAINERD       CLOUDY    76  61  59 N5        29.91S HAZE
HIBBING        CLEAR     75  56  51 N5        29.89S
ALEXANDRIA     PTSUNNY   76  64  66 NW3       29.93S HAZE
SAINT CLOUD    CLOUDY    77  65  66 NW5       29.89S HAZE
MINNEAPOLIS    PTCLDY    77  58  51 SW7       29.90S
$$

  *****  WEATHER ACROSS SOUTH DAKOTA  *****

CITY           SKY/WX    TMP DP  RH WIND       PRES   REMARKS
SIOUX FALLS    CLOUDY    76  64  66 CALM      29.95S
BROOKINGS      MOSUNNY   77  66  69 SW3       29.95S
WATERTOWN      MOSUNNY   78  63  59 W3        29.93S HAZE
HURON          MOSUNNY   78  66  66 S7        29.91F
SISSETON         N/A     80  65  59 CALM      29.90S
ABERDEEN       CLOUDY    79  67  66 CALM      29.91S HAZE
MITCHELL       SUNNY     77  67  71 SE7       29.94S
PIERRE         SUNNY     76  67  73 SE7       29.91S HAZE
MOBRIDGE       MOSUNNY   81  67  62 SE5       29.90S HAZE
RAPID CITY     SUNNY     77  62  59 SE9       29.95F
$$

  *****  SOME WEATHER IN NEARBY STATES *****

CITY           SKY/WX    TMP DP  RH WIND       PRES   REMARKS
GLASGOW MT     SUNNY     86  49  27 E6        29.82F HAZE
GREAT FALLS MT SUNNY     94  42  16 CALM      29.83F HX  90
CHEYENNE WY    CLOUDY    74  45  35 SE13      30.11F
SCOTTSBLUFF NE SUNNY     82  56  40 SE10      29.99S
OMAHA NE       PTCLDY    77  52  41 CALM      29.96S
DES MOINES IA  PTCLDY    75  58  55 S6        29.94S
DAVENPORT IA   CLEAR     71  63  75 CALM      29.93S
CHICAGO IL     MOCLDY    70  49  47 E7        29.91S
EAU CLAIRE WI  PTCLDY    73  58  59 SW6       29.89F
LA CROSSE WI   CLEAR     74  60  61 SW5       29.91R
$$

  *****  SOME NATIONAL WEATHER *****

CITY           SKY/WX    TMP DP  RH WIND       PRES   REMARKS
LA GUARDIA NY  CLOUDY    74  56  53 S9        29.95S
RALEIGH NC     MOCLDY    75  72  90 W3        29.88S
ATLANTA GA     MOCLDY    76  69  79 SW5       30.00S
NEW ORLEANS LA MOCLDY    84  73  69 S14       29.99S HX  90
OKLAHOMA CITY  CLOUDY    81  70  69 S3        29.91R
ALBUQUERQUE NM PTSUNNY   82  57  42 E12       30.08S
SALT LAKE CITY FAIR      98  42  14 N7        29.89F HX  94
LOS ANGELES CA PTSUNNY   67  61  81 W15       29.86F
BOISE ID       MOSUNNY  101  34   9 NW10      29.79F HX  95
SEATTLE WA     SUNNY     91  55  29 NW10      29.86F
$$

*** WEATHER ACROSS MANITOBA...SASKATCHEWAN AND ONTARIO ***
                ***ONTARIO***

CITY           SKY/WX    TMP DP  RH WIND       PRES   REMARKS
GERALDTON      PTCLDY    66  55  68 NW9       29.85R
THUNDER BAY    MOCLDY    72  59  64 E8        29.85R
SIOUX LOOKOUT  NOT AVBL
TORONTO        MOCLDY    66  43  42 SE5       29.93S
BIG TROUT LK   SUNNY     68  43  40 N5        29.89R
PICKLE LAKE    PTCLDY    66  50  55 N5        29.90S
DRYDEN         SUNNY     73  50  43 N3        29.91S
KENORA         PTSUNNY   77  50  38 NW3       29.90F
$$
                *** MANITOBA***

CITY           SKY/WX    TMP DP  RH WIND       PRES   REMARKS
BRANDON        CLOUDY    75  63  64 SE6       29.88S SMOKE
DAUPHIN        SUNNY     73  64  73 S7        29.82F HAZE
ISLAND LAKE    PTSUNNY   72  52  49 E3        29.86F
PILOT MOUND      N/A     70  64  83 SE7         N/A
THE PAS        CLOUDY    77  66  69 SE9       29.69F SMOKE
THOMPSON       CLOUDY    75  52  43 S7        29.73F
WINNIPEG       SUNNY     75  64  69 SW3       29.88F SMOKE
LYNN LAKE      PTSUNNY   63  57  82 S9        29.60F
CHURCHILL      LGT RAIN  46  43  87 SE16G23   29.88R
GILLAM         LGT RAIN  66  55  68 SE3       29.79F
$$
                ***SASKATCHEWAN***

CITY           SKY/WX    TMP DP  RH WIND       PRES   REMARKS
ESTEVAN        CLOUDY    77  64  65 S5        29.87S SMOKE
KINDERSLEY     CLOUDY    79  63  57 SW5       29.74F
LLOYDMINSTER   PTSUNNY   72  59  64 E13       29.77S
PRINCE ALBERT  CLOUDY    82  61  47 SW10      29.69S
REGINA         PTSUNNY   81  63  54 SE10G17   29.81F SMOKE
YORKTON        CLOUDY    79  63  57 S6        29.81F HAZE
N. BATTLEFORD  CLOUDY    77  57  50 NW32G41   29.77R
LA RONGE       NOT AVBL
SASKATOON      PTSUNNY   84  55  37 S12       29.74S
SWIFT CURRENT  SUNNY     84  59  42 S10       29.78F
$$
NOTE: THESE ARE AUTOMATED STATIONS WITH LIMITED QUALITY CONTROL
      "FAIR" INDICATES FEW OR NO CLOUDS BELOW 12,000 FEET WITH NO
      SIGNIFICANT WEATHER AND/OR OBSTRUCTIONS TO VISIBILITY.
      SKY/WX - SKY CONDITION AND SIGNIFICANT WEATHER.
      TMP - AIR TEMPERATURE.    DP   - DEWPOINT TEMPERATURE.
      RH  - RELATIVE HUMIDITY.  PRES - PRESSURE.
      HX  - HEAT INDEX.         WCI  - WIND CHILL INDEX.
$



USA.gov is the U.S. government's official web portal to all federal, state and local government web resources and services.